User: anonymous   Login
Location: Caltech
(34.1382°N, 118.1253°W)
Time: 22:35:17
(UTC-07:00)
Language:

Cosmos 1975 - Orbit

View from above orbital plane
View from above orbital plane
View from above satellite
View from above satellite

Ground track
Ground track

The orbit data is extracted from the following two-line orbital elements,

1 19573U 88093A   15115.82439666  .00004185  00000-0  31279-3 0  9993
2 19573 082.5240 022.5977 0016557 083.9657 276.3454 15.02452517442106
Epoch (UTC): 25 April 2015 19:47:07
Eccentricity: 0.0016557
inclination: 82.5240°
perigee height: 548 km
apogee height: 571 km
right ascension of ascending node: 22.5977°
argument of perigee: 83.9657°
revolutions per day: 15.02452517
mean anomaly at epoch: 276.3454°
orbit number at epoch: 44210

The dashed part of the orbit path shows where the satellite is in the earth's shadow,  

DLR